Logan, UT

3:41 AM MST on February 19, 2018 (GMT -0700)
Logan-Cache

Weather History for KLGU - December, 2012

Change the Weather History Date:

Monday, December 31, 2012

  Actual Average Record
Temperature  
Mean Temperature 3 °F -  
Max Temperature 12 °F 28 °F 47 °F (1980)
Min Temperature -6 °F 9 °F -21 °F (1978)
Degree Days  
Heating Degree Days 62    
Moisture  
Dew Point -1 °F    
Average Humidity 86    
Maximum Humidity 100    
Minimum Humidity 78    
Precipitation  
Precipitation 0.03 in - - ()
Sea Level Pressure  
Sea Level Pressure 30.27 in    
Wind  
Wind Speed 1 mph (NW)    
Max Wind Speed 7 mph    
Max Gust Speed -    
Visibility 3 miles    
Events Fog , Snow    
Averages and records for this station are not official NWS values.
T = Trace of Precipitation, MM = Missing Value Source: NWS Daily Summary

Daily Weather History Graph

Daily Weather History Graph

Search for Another Location

Airport or City:

Trip Planner

Search our weather history database for the weather conditions in past years. The results will help you decide how hot, cold, wet, or windy it might be!

Date:

Astronomy

Dec. 31, 2012 Rise Set
Actual Time 7:54 AM MST 5:06 PM MST
Civil Twilight 7:23 AM MST 5:38 PM MST
Nautical Twilight 6:48 AM MST 6:13 PM MST
Astronomical Twilight 6:14 AM MST 6:47 PM MST
Moon 8:44 PM MST (12/31) 9:35 AM MST (12/31)
Length of Visible Light 10h 15m
Length of Day
9h 12m
Waning Gibbous, 90% of the Moon is Illuminated
Dec 31
Waning Gibbous
Jan 4
Last Quarter
Jan 11
New
Jan 18
First Quarter
Jan 26
Full

Hourly Weather History & Observations

Time (MST) Temp. Windchill Dew Point Humidity Pressure Visibility Wind Dir Wind Speed Gust Speed Precip Events Conditions
12:05 AM 10.4 °F - 6.8 °F 85% 30.09 in 4.0 mi Calm Calm - N/A   Overcast
12:51 AM 1.0 °F - -2.9 °F 83% 30.31 in 4.0 mi Calm Calm - 0.00 in   Overcast
1:28 AM 5.0 °F - 1.4 °F 85% 30.09 in 2.5 mi Calm Calm - 0.00 in Snow Light Snow
1:51 AM 5.0 °F - 1.9 °F 87% 30.30 in 3.0 mi Calm Calm - 0.00 in Snow Light Snow
2:30 AM 5.0 °F - 1.4 °F 85% 30.10 in 2.5 mi Calm Calm - 0.00 in Snow Light Snow
2:43 AM 5.0 °F - 1.4 °F 85% 30.10 in 2.5 mi Calm Calm - 0.00 in Snow Light Snow
2:48 AM 3.2 °F - 1.4 °F 92% 30.10 in 3.0 mi Calm Calm - 0.00 in Snow Light Snow
2:51 AM 3.9 °F - -0.0 °F 84% 30.29 in 4.0 mi Calm Calm - 0.00 in Snow Light Snow
3:20 AM 1.4 °F - -2.2 °F 85% 30.10 in 5.0 mi Calm Calm - 0.00 in   Scattered Clouds
3:51 AM -0.9 °F -11.0 °F -5.1 °F 83% 30.33 in 5.0 mi North 4.6 mph - 0.00 in   Mostly Cloudy
4:18 AM 3.2 °F - -0.4 °F 85% 30.11 in 2.0 mi Calm Calm - 0.00 in Snow Light Snow
4:51 AM 1.0 °F -6.7 °F -2.9 °F 83% 30.32 in 3.0 mi WSW 3.5 mph - 0.00 in Snow Light Snow
4:59 AM 1.4 °F - -2.2 °F 85% 30.10 in 3.0 mi Calm Calm - 0.00 in Snow Light Snow
5:29 AM -0.4 °F -8.3 °F -5.8 °F 78% 30.10 in 4.0 mi NW 3.5 mph - 0.00 in   Overcast
5:51 AM -6.0 °F -16.9 °F -9.9 °F 83% 30.38 in 6.0 mi NE 4.6 mph - 0.00 in   Mostly Cloudy
6:20 AM 1.4 °F -6.2 °F -2.2 °F 85% 30.11 in 5.0 mi ESE 3.5 mph - 0.00 in Snow Light Snow
6:27 AM 3.2 °F - -0.4 °F 85% 30.10 in 2.5 mi Calm Calm - 0.00 in Snow Light Snow
6:34 AM 3.2 °F -6.2 °F -0.4 °F 85% 30.10 in 1.5 mi SE 4.6 mph - 0.00 in Snow Light Snow
6:51 AM -2.0 °F -12.2 °F -5.1 °F 87% 30.37 in 2.5 mi WSW 4.6 mph - 0.00 in Snow Light Snow
7:05 AM -4.0 °F -16.3 °F -7.6 °F 85% 30.12 in 3.0 mi West 5.8 mph - 0.00 in Snow Light Snow
7:33 AM -2.2 °F -15.6 °F -7.6 °F 78% 30.14 in 6.0 mi NE 6.9 mph - 0.00 in   Haze
7:51 AM -0.0 °F -7.9 °F -4.0 °F 83% 30.41 in 3.0 mi NE 3.5 mph - 0.00 in Snow Light Snow
7:57 AM 1.4 °F - -4.0 °F 78% 30.15 in 1.8 mi Calm Calm - 0.00 in Snow Light Snow
8:28 AM 1.4 °F -8.3 °F -2.2 °F 85% 30.16 in 2.5 mi West 4.6 mph - 0.00 in Snow Light Snow
8:51 AM -0.0 °F -7.9 °F -2.9 °F 88% 30.42 in 3.0 mi NNW 3.5 mph - 0.00 in Snow Light Snow
9:48 AM 1.4 °F -6.2 °F -0.4 °F 92% 30.19 in 5.0 mi ESE 3.5 mph - 0.00 in   Scattered Clouds
9:51 AM 1.9 °F -5.6 °F -0.9 °F 88% 30.43 in 5.0 mi ESE 3.5 mph - 0.00 in   Scattered Clouds
10:16 AM 3.2 °F -6.2 °F 1.4 °F 92% 30.20 in 3.0 mi SW 4.6 mph - N/A   Mostly Cloudy
10:21 AM 3.2 °F - 3.2 °F 100% 30.20 in 2.5 mi Calm Calm - N/A   Mostly Cloudy
10:30 AM 3.2 °F - 1.4 °F 92% 30.20 in 4.0 mi Calm Calm - N/A   Overcast
10:41 AM 3.2 °F - 1.4 °F 92% 30.20 in 2.0 mi Calm Calm - N/A   Overcast
10:46 AM 5.0 °F - 1.4 °F 85% 30.20 in 1.5 mi Calm Calm - N/A   Overcast
10:51 AM 5.0 °F - 1.9 °F 87% 30.42 in 2.5 mi Calm Calm - N/A   Overcast
10:57 AM 5.0 °F - 1.4 °F 85% 30.20 in 5.0 mi Calm Calm - N/A   Mostly Cloudy
11:11 AM 6.8 °F - 3.2 °F 85% 30.19 in 5.0 mi Calm Calm - N/A   Scattered Clouds
11:51 AM 6.1 °F -2.8 °F 1.9 °F 83% 30.39 in 6.0 mi WNW 4.6 mph - N/A   Clear
12:51 PM 9.0 °F - 5.0 °F 84% 30.40 in 6.0 mi Calm Calm - N/A   Clear
1:51 PM 12.0 °F - 8.1 °F 84% 30.36 in 8.0 mi Calm Calm - 0.03 in   Clear
2:51 PM 12.0 °F - 7.0 °F 80% 30.38 in 6.0 mi Calm Calm - N/A   Haze
4:51 PM 10.9 °F - 6.1 °F 81% 30.42 in 6.0 mi Calm Calm - N/A   Haze
5:51 PM 3.0 °F - 1.9 °F 95% 30.49 in 4.0 mi Calm Calm - N/A   Clear
5:55 PM 1.4 °F - -0.4 °F 92% 30.21 in 1.2 mi Calm Calm - N/A   Partly Cloudy
6:22 PM 3.2 °F -4.2 °F -0.4 °F 85% 30.22 in 2.0 mi ENE 3.5 mph - N/A   Overcast
6:24 PM 3.2 °F -4.2 °F -0.4 °F 85% 30.22 in 4.0 mi ENE 3.5 mph - N/A   Overcast
6:51 PM 3.9 °F - -0.9 °F 80% 30.48 in 4.0 mi Calm Calm - N/A   Haze
7:39 PM -5.8 °F - -9.4 °F 84% 30.22 in 1.8 mi Calm Calm - N/A   Clear
7:46 PM -4.0 °F -12.4 °F -7.6 °F 85% 30.23 in 0.5 mi NW 3.5 mph - N/A Fog Light Freezing Fog
7:51 PM -2.0 °F -10.1 °F -5.1 °F 87% 30.51 in 0.2 mi NW 3.5 mph - N/A Fog Light Freezing Fog
8:46 PM -0.4 °F - -2.2 °F 92% 30.24 in 0.2 mi Calm Calm - N/A Fog Light Freezing Fog
8:51 PM -0.9 °F - -2.9 °F 91% 30.52 in 0.2 mi Calm Calm - N/A Fog Light Freezing Fog
9:12 PM -0.4 °F - -4.0 °F 85% 30.25 in 2.5 mi Calm Calm - N/A   Overcast
9:17 PM 1.4 °F - -2.2 °F 85% 30.25 in 5.0 mi Calm Calm - N/A   Overcast
9:48 PM 1.4 °F -9.9 °F -2.2 °F 85% 30.25 in 1.8 mi WSW 5.8 mph - N/A   Overcast
9:49 PM 1.0 °F -8.7 °F -2.0 °F 87% 30.51 in 1.8 mi WSW 4.6 mph - N/A   Overcast
10:03 PM 1.4 °F -6.2 °F -0.4 °F 92% 30.26 in 2.5 mi SW 3.5 mph - N/A   Overcast
10:08 PM 1.4 °F - -0.4 °F 92% 30.26 in 4.0 mi Calm Calm - N/A   Overcast
10:22 PM 3.2 °F - -0.4 °F 85% 30.27 in 5.0 mi Calm Calm - N/A   Overcast
10:36 PM 5.0 °F - 1.4 °F 85% 30.27 in 1.8 mi Calm Calm - N/A   Overcast
10:43 PM 5.0 °F - 1.4 °F 85% 30.27 in 3.0 mi Calm Calm - N/A   Overcast
10:51 PM 5.0 °F - 1.9 °F 87% 30.51 in 4.0 mi Calm Calm - N/A   Overcast
11:51 PM 3.0 °F - -0.0 °F 87% 30.52 in 4.0 mi Calm Calm - N/A   Overcast